Location: Cz?stochówka
(50.8142°N, 19.0915°E)
Time: 09:39:56
(UTC+00:00)

Cosmos 1709 Rocket - Pass Details

Date: 13 January 2026
Orbit: 948 x 1000 km, 82.9° (Epoch: 17 February)

Event Time Altitude Azimuth Distance (km) Brightness Sun altitude
Rises 03:31:38 0° 186° (S) 3,608 6.9 -29.1°
Reaches altitude 10° 03:34:06 10° 186° (S) 2,666 6.2 -28.7°
Maximum altitude 03:40:12 87° 98° (E) 959 3.8 -27.7°
Drops below altitude 10° 03:46:22 10° 10° (N) 2,695 6.4 -26.8°
Sets 03:48:53 0° 11° (N) 3,650 7.1 -26.4°
